Location: El Águila
(10.4167°N, 66.7167°W)
Time: 23:13:35
(UTC+00:00)

SWIFT - Pass Details

Date: 02 April 2023
Orbit: 527 x 541 km, 20.6° (Epoch: 28 May)

Event Time Altitude Azimuth Distance (km) Brightness Sun altitude
Rises 00:46:34 0° 274° (W) 2,641 6.9 -32.2°
Reaches altitude 10° 00:49:01 10° 285° (WNW) 1,755 5.7 -32.8°
Enters shadow 00:50:14 17° 296° (WNW) 1,361 5.0 -33.1°
